Vertical_Velocity
-1 -6 -2 -2 -1 -2 -3 -6 -4 -1 -1 1 -1 -3 -2 1 -0 -1 -1 -13 -0 -3
-1 -4 -4 -3 -3 -2 -2 -4 -2 -1 -5 -1 -3 -7 -1 -1 -2 -4 1 -2 -2 3
-4 -5 -4 -3 -2 -3 -1 -2 -2 -1 1 1 -7 -10 -1 2 3 2 1 -1 -1 1
-3 -5 -4 -2 -2 -2 -1 -2 -1 -1 1 0 -0 -1 -1 -0 -0 2 -3 1 0 -1
-3 -2 -6 -2 -3 -2 -1 -0 1 3 -1 2 -0 -6 -2 3 2 -4 1 -2 -4 -2
-3 -2 -5 -2 -1 -0 -1 1 1 2 4 -2 1 -3 -3 2 6 -0 1 -0 -1 -2
-2 -1 -4 -1 -1 -1 -0 -1 -2 -1 -0 2 -2 -4 2 -2 -2 -2 -1 1 -1 1
-1 -1 -2 -2 -1 1 -2 -1 -0 0 2 -1 -1 0 1 0 1 0 -1 -1 -1 -1
-1 0 -1 -1 -0 0 -2 -1 0 -1 1 0 2 3 3 3 2 2 -0 -1 -1 1
-1 -0 -1 -1 0 1 -0 0 -0 2 2 1 0 1 2 1 -0 -2 -1 4 -1 2
-1 -1 -1 -1 1 1 1 1 0 1 1 3 1 1 -0 -1 -3 2 2 -2 2 -1
-1 -1 -1 -0 -1 0 -0 -1 0 1 1 2 -0 0 -0 -1 1 0 -1 2 2 -2
-2 -1 -1 1 1 0 -0 -1 -1 1 1 -0 -1 1 3 -1 -1 3 1 -0 -2 1
-2 1 0 -0 -0 0 0 -1 -0 0 -1 -1 -1 1 3 -0 1 -0 -0 3 -2 0
Height
3049 3045 3043 3040 3037 3034 3033 3031 3029 3026 3023 3022 3021 3018 3017 3018 3019 3022 3023 3025 3025 3023
3044 3041 3038 3035 3032 3029 3027 3024 3022 3020 3017 3016 3015 3011 3007 3007 3008 3010 3014 3015 3014 3010
3040 3037 3034 3031 3027 3024 3021 3019 3017 3014 3010 3010 3010 3007 3004 3002 3003 3002 3002 3002 3001 3000
3036 3033 3030 3026 3023 3020 3017 3015 3012 3010 3007 3006 3004 3002 3000 2996 2994 2994 2994 2993 2993 2991
3031 3029 3027 3024 3021 3018 3015 3013 3011 3009 3006 3005 3004 3001 2998 2994 2993 2991 2990 2989 2987 2986
3027 3026 3023 3021 3019 3016 3014 3012 3009 3007 3006 3004 3004 3002 2998 2996 2992 2990 2988 2987 2985 2983
3024 3022 3019 3017 3016 3014 3012 3010 3008 3007 3005 3003 3001 2999 2996 2995 2990 2989 2987 2985 2984 2981
3020 3018 3016 3014 3013 3011 3010 3010 3008 3006 3003 3001 2999 2995 2993 2991 2989 2988 2986 2983 2981 2979
3017 3015 3014 3012 3011 3010 3010 3008 3006 3004 3002 3000 2997 2994 2991 2989 2988 2986 2983 2981 2978 2976
3014 3013 3012 3011 3010 3009 3008 3006 3004 3001 2999 2997 2995 2993 2990 2988 2987 2984 2982 2979 2977 2974
3012 3011 3011 3010 3009 3007 3006 3004 3002 3000 2998 2996 2994 2991 2989 2987 2984 2982 2980 2978 2976 2973
3010 3010 3009 3008 3007 3006 3004 3002 3000 2998 2996 2994 2992 2990 2988 2985 2982 2980 2977 2975 2973 2970
3009 3008 3007 3006 3005 3004 3002 3001 2999 2997 2995 2993 2991 2989 2986 2984 2981 2978 2975 2973 2970 2967
3007 3006 3005 3004 3004 3002 3001 2999 2997 2995 2992 2990 2988 2986 2984 2981 2979 2976 2973 2970 2968 2965